{"data":{"norad_id":63202,"intl_designator":"2025-048V","name":"STARLINK-32935","alt_names":[],"object_type":"PAYLOAD","status":"ACTIVE","operator":null,"country":"US","launch_date":"2025-03-13","launch_site_code":"AFETR","launch_vehicle":null,"mission":null,"orbit_class":"UNKNOWN","rcs_meters":null,"size_class":null,"mass_kg":null,"dimensions":null,"purposes":["comms"],"wikipedia_slug":null,"has_3d_model":false,"image_url":null,"decayed_at":null,"tle_current":{"epoch":"2026-05-25T00:42:17.123040Z","epoch_age_seconds":69169,"freshness":"FRESH","line1":"1 63202U 25048V   26145.02936485  .00010651  00000+0  39584-3 0  9991","line2":"2 63202  43.0030  14.5126 0001443 268.0802  91.9885 15.27594143 68760","mean_motion":15.27594143,"eccentricity":0.0001443,"inclination_deg":43.003,"raan_deg":14.5126,"arg_perigee_deg":268.0802,"mean_anomaly_deg":91.9885,"bstar":0.00039584,"rev_number":6876,"period_min":94.265875959175,"perigee_km":482.01668409376,"apogee_km":483.99681017918,"semimajor_km":6861.1437471365,"source":"CELESTRAK","updated_at":"2026-05-25T13:38:19.923186Z"}}}